Location: Killam
(52.7910°N, 111.8608°W)
Time: 20:50:35
(UTC+00:00)

A-11 Canister half - Pass Details

Date: 19 February 2026
Orbit: 1525 x 1683 km, 47.3° (Epoch: 5 March)

Event Time Altitude Azimuth Distance (km) Brightness Sun altitude
Rises 05:05:20 0° 282° (WNW) 4,680 12.3 -38.1°
Reaches altitude 10° 05:08:34 10° 276° (W) 3,694 11.5 -38.5°
Enters shadow 05:15:31 39° 231° (SW) 2,162 9.7 -39.3°
Maximum altitude 05:17:01 41° 210° (SSW) 2,095 - -39.4°
Drops below altitude 10° 05:25:33 10° 145° (SE) 3,736 - -40.4°
Sets 05:28:51 0° 138° (SE) 4,737 - -40.7°
